Location: Greenwich
(51.4790°N, 0.0090°E)
Time: 14:32:13
(UTC+01:00)

Altair - Pass Details

Date: 20 June 2025
Orbit: 1502 x 1682 km, 47.2° (Epoch: 19 July)

Event Time Altitude Azimuth Distance (km) Brightness Sun altitude
Rises 00:05:38 0° 226° (SW) 4,631 9.7 -14.1°
Reaches altitude 10° 00:08:45 10° 220° (SW) 3,661 9.1 -14.2°
Maximum altitude 00:17:23 47° 151° (SSE) 1,960 7.6 -14.5°
Drops below altitude 10° 00:26:16 10° 82° (E) 3,776 9.6 -14.7°
Sets 00:29:32 0° 77° (ENE) 4,787 10.2 -14.8°
